Location: Krakow
(50.0830°N, 19.9170°E)
Time: 06:50:49
(UTC+02:00)

Tiros 1 despin weight - Pass Details

Date: 15 March 2026
Orbit: 555 x 592 km, 48.2° (Epoch: 18 April)

Event Time Altitude Azimuth Distance (km) Brightness Sun altitude
Rises 05:46:35 0° 237° (WSW) 2,809 ? -2.1°
Reaches altitude 10° 05:48:56 10° 231° (SW) 1,906 ? -1.7°
Maximum altitude 05:53:05 44° 160° (SSE) 810 ? -1.0°
Drops below altitude 10° 05:57:13 10° 87° (E) 1,892 ? -0.4°
Sets 05:59:32 0° 81° (E) 2,786 ? 0.0°
